{"data":{"norad_id":37238,"epoch":"2026-09-19T12:09:12.125376Z","epoch_age_seconds":100293,"freshness":"FRESH","line1":"1 37238U 10065B   26262.50639034 -.00000006  00000+0  00000+0 0  9998","line2":"2 37238   0.0211 118.2095 0002617  71.2370  57.2848  1.00273005 54192","mean_motion":1.00273005,"eccentricity":0.0002617,"inclination_deg":0.0211,"raan_deg":118.2095,"arg_perigee_deg":71.237,"mean_anomaly_deg":57.2848,"bstar":0,"rev_number":5419,"period_min":1436.0794313484,"perigee_km":35775.21853352,"apogee_km":35797.287375222,"semimajor_km":42164.389954371,"source":"CELESTRAK","updated_at":"2026-09-20T09:00:35.519087Z"}}